When you browse on this site, cookies collect data to enhance your experience and personalize the content and advertising you see.
Visit our Privacy Policy to learn more. By continuing to use the site, you agree to this use of cookies and data.
  • In Italy
  • List of Countries
  • For 7 days
  • Water Temperature
  • Satellite Maps
  • Weather Map
  • Weather Widgets
  • user-avatar
    Login

    Hourly Weather Tibissa

    Today, 19 March, Tuesday

    Time Temperature Precipitation Wind Pressure Humidity
    00:00 +7°C° 0.1 mm 5 mps 685 mmHg 84%
    01:00 +6°C° 0 mm 5 mps 685 mmHg 82%
    02:00 +6°C° 0 mm 4 mps 685 mmHg 82%
    03:00 +5°C° 0 mm 4 mps 684 mmHg 82%
    04:00 +5°C° 0 mm 4 mps 684 mmHg 82%
    05:00 +5°C° 0 mm 4 mps 684 mmHg 83%
    06:00 +4°C° 0 mm 4 mps 684 mmHg 84%
    07:00 +4°C° 0 mm 4 mps 684 mmHg 87%
    08:00 +5°C° 0 mm 5 mps 684 mmHg 81%
    09:00 +6°C° 0 mm 5 mps 684 mmHg 76%
    10:00 +5°C° 0 mm 6 mps 684 mmHg 71%
    11:00 +7°C° 0 mm 6 mps 684 mmHg 66%
    12:00 +9°C° 0 mm 6 mps 684 mmHg 61%
    13:00 +10°C° 0 mm 6 mps 684 mmHg 56%
    14:00 +9°C° 0.1 mm 6 mps 684 mmHg 58%
    15:00 +9°C° 0.1 mm 7 mps 684 mmHg 60%
    16:00 +9°C° 0.1 mm 7 mps 683 mmHg 62%
    17:00 +8°C° 0.6 mm 7 mps 683 mmHg 67%
    18:00 +6°C° 0.6 mm 7 mps 683 mmHg 72%
    19:00 +5°C° 0.6 mm 7 mps 683 mmHg 77%
    20:00 +4°C° 0.2 mm 7 mps 684 mmHg 78%
    21:00 +4°C° 0.2 mm 7 mps 684 mmHg 78%
    22:00 +4°C° 0.2 mm 7 mps 685 mmHg 79%
    23:00 +3°C° 0.8 mm 7 mps 685 mmHg 80%

    Tomorrow, 20 March, Wednesday

    Time Temperature Precipitation Wind Pressure Humidity
    00:00 +3°C° 0.8 mm 7 mps 685 mmHg 82%
    01:00 +3°C° 0.8 mm 6 mps 685 mmHg 84%
    02:00 +3°C° 0.8 mm 6 mps 684 mmHg 85%
    03:00 +2°C° 0.8 mm 5 mps 684 mmHg 86%
    04:00 +2°C° 0.8 mm 5 mps 684 mmHg 87%
    05:00 +2°C° 0.4 mm 5 mps 684 mmHg 88%
    06:00 +2°C° 0.4 mm 5 mps 684 mmHg 88%
    07:00 +2°C° 0.4 mm 5 mps 684 mmHg 89%
    08:00 +2°C° 0.4 mm 5 mps 684 mmHg 87%
    09:00 +3°C° 0.4 mm 5 mps 684 mmHg 85%
    10:00 +3°C° 0.4 mm 5 mps 684 mmHg 84%
    11:00 +3°C° 0.8 mm 5 mps 684 mmHg 84%
    12:00 +5°C° 0.8 mm 4 mps 684 mmHg 84%
    13:00 +5°C° 0.8 mm 4 mps 684 mmHg 85%
    14:00 +5°C° 1.3 mm 4 mps 684 mmHg 85%
    15:00 +5°C° 1.3 mm 4 mps 684 mmHg 86%
    16:00 +5°C° 1.3 mm 4 mps 683 mmHg 87%
    17:00 +5°C° 1.2 mm 4 mps 683 mmHg 89%
    18:00 +4°C° 1.2 mm 4 mps 683 mmHg 91%
    19:00 +3°C° 1.2 mm 5 mps 684 mmHg 92%
    20:00 +3°C° 1.4 mm 5 mps 684 mmHg 92%
    21:00 +3°C° 1.4 mm 6 mps 684 mmHg 92%
    22:00 +3°C° 1.4 mm 6 mps 684 mmHg 92%
    23:00 +3°C° 0.9 mm 7 mps 684 mmHg 92%

    Day after tomorrow, 21 March, Thursday

    Time Temperature Precipitation Wind Pressure Humidity
    00:00 +3°C° 0.9 mm 7 mps 683 mmHg 93%
    01:00 +3°C° 0.9 mm 7 mps 683 mmHg 94%
    02:00 +2°C° 0.8 mm 7 mps 683 mmHg 93%
    03:00 +2°C° 0.8 mm 7 mps 682 mmHg 92%
    04:00 +1°C° 0.8 mm 8 mps 682 mmHg 92%
    05:00 +1°C° 0.5 mm 8 mps 682 mmHg 92%
    06:00 +2°C° 0.5 mm 7 mps 682 mmHg 93%
    07:00 +2°C° 0.5 mm 7 mps 681 mmHg 93%
    08:00 +2°C° 4.1 mm 6 mps 681 mmHg 93%
    09:00 +2°C° 4.1 mm 5 mps 681 mmHg 92%
    10:00 +4°C° 4.1 mm 4 mps 681 mmHg 91%
    11:00 +4°C° 6.7 mm 3 mps 681 mmHg 91%
    12:00 +4°C° 6.7 mm 3 mps 681 mmHg 91%
    13:00 +4°C° 6.7 mm 3 mps 681 mmHg 91%
    14:00 +4°C° 5 mm 3 mps 680 mmHg 91%
    15:00 +5°C° 5 mm 3 mps 680 mmHg 92%
    16:00 +6°C° 5 mm 2 mps 680 mmHg 92%
    17:00 +5°C° 4.8 mm 3 mps 680 mmHg 93%
    18:00 +5°C° 4.8 mm 4 mps 680 mmHg 95%
    19:00 +5°C° 4.8 mm 4 mps 680 mmHg 96%
    20:00 +4°C° 4.2 mm 7 mps 680 mmHg 96%
    21:00 +5°C° 4.2 mm 9 mps 681 mmHg 96%
    22:00 +4°C° 4.2 mm 11 mps 681 mmHg 96%
    23:00 +5°C° 2.1 mm 9 mps 681 mmHg 97%

    22 March, Friday

    Time Temperature Precipitation Wind Pressure Humidity
    00:00 +5°C° 2.1 mm 8 mps 681 mmHg 97%
    01:00 +5°C° 2.1 mm 6 mps 682 mmHg 97%
    02:00 +6°C° 0.3 mm 5 mps 682 mmHg 97%
    03:00 +6°C° 0.3 mm 5 mps 682 mmHg 97%
    04:00 +6°C° 0.3 mm 4 mps 682 mmHg 96%
    05:00 +6°C° 0.1 mm 4 mps 682 mmHg 95%
    06:00 +6°C° 0.1 mm 4 mps 683 mmHg 94%
    07:00 +6°C° 0.1 mm 4 mps 683 mmHg 93%
    08:00 +7°C° 0 mm 4 mps 683 mmHg 88%
    09:00 +8°C° 0 mm 3 mps 684 mmHg 83%
    10:00 +8°C° 0 mm 3 mps 684 mmHg 78%
    11:00 +9°C° 0.2 mm 3 mps 684 mmHg 72%
    12:00 +10°C° 0.2 mm 2 mps 684 mmHg 65%
    13:00 +12°C° 0.2 mm 2 mps 684 mmHg 58%
    14:00 +12°C° 0.4 mm 2 mps 684 mmHg 57%
    15:00 +12°C° 0.4 mm 2 mps 684 mmHg 55%
    16:00 +12°C° 0.4 mm 2 mps 684 mmHg 54%
    17:00 +12°C° 0.5 mm 2 mps 685 mmHg 59%
    18:00 +10°C° 0.5 mm 2 mps 685 mmHg 63%
    19:00 +9°C° 0.5 mm 2 mps 685 mmHg 68%
    20:00 +9°C° 0.2 mm 2 mps 686 mmHg 72%
    21:00 +8°C° 0.2 mm 2 mps 686 mmHg 76%
    22:00 +9°C° 0.2 mm 1 mps 687 mmHg 79%
    23:00 +9°C° 0.1 mm 1 mps 687 mmHg 81%

    23 March, Saturday

    Time Temperature Precipitation Wind Pressure Humidity
    00:00 +8°C° 0.1 mm 1 mps 687 mmHg 83%
    01:00 +8°C° 0.1 mm 1 mps 687 mmHg 86%
    02:00 +8°C° 0.4 mm 1 mps 687 mmHg 86%
    03:00 +8°C° 0.4 mm 1 mps 687 mmHg 87%
    04:00 +7°C° 0.4 mm 0 mps 687 mmHg 88%
    05:00 +8°C° 0.6 mm 1 mps 687 mmHg 89%
    06:00 +8°C° 0.6 mm 1 mps 687 mmHg 89%
    07:00 +8°C° 0.6 mm 1 mps 687 mmHg 90%
    08:00 +8°C° 0.5 mm 1 mps 688 mmHg 87%
    09:00 +8°C° 0.5 mm 1 mps 688 mmHg 83%
    10:00 +9°C° 0.5 mm 1 mps 688 mmHg 80%
    11:00 +10°C° 0.1 mm 1 mps 688 mmHg 73%
    12:00 +11°C° 0.1 mm 1 mps 688 mmHg 67%
    13:00 +12°C° 0.1 mm 1 mps 688 mmHg 60%
    14:00 +12°C° 0.1 mm 1 mps 688 mmHg 58%
    15:00 +12°C° 0.1 mm 0 mps 687 mmHg 55%
    16:00 +12°C° 0.1 mm 0 mps 687 mmHg 53%
    17:00 +12°C° 0 mm 0 mps 687 mmHg 57%
    18:00 +11°C° 0 mm 0 mps 687 mmHg 61%
    19:00 +11°C° 0 mm 0 mps 687 mmHg 66%
    20:00 +10°C° 0 mm 0 mps 688 mmHg 68%
    21:00 +11°C° 0 mm 1 mps 688 mmHg 70%
    22:00 +10°C° 0 mm 1 mps 688 mmHg 72%
    23:00 +10°C° 0 mm 1 mps 688 mmHg 73%

    24 March, Sunday

    Time Temperature Precipitation Wind Pressure Humidity
    00:00 +9°C° 0 mm 1 mps 688 mmHg 75%
    01:00 +9°C° 0 mm 1 mps 688 mmHg 76%
    02:00 +8°C° 0 mm 1 mps 687 mmHg 77%
    03:00 +8°C° 0 mm 1 mps 687 mmHg 79%
    04:00 +8°C° 0 mm 1 mps 687 mmHg 80%
    05:00 +8°C° 0 mm 1 mps 687 mmHg 81%
    06:00 +7°C° 0 mm 0 mps 687 mmHg 82%
    07:00 +7°C° 0 mm 0 mps 687 mmHg 83%
    08:00 +8°C° 0 mm 0 mps 688 mmHg 74%
    09:00 +10°C° 0 mm 0 mps 688 mmHg 66%
    10:00 +12°C° 0 mm 0 mps 689 mmHg 58%
    11:00 +14°C° 0 mm 1 mps 688 mmHg 53%
    12:00 +14°C° 0 mm 1 mps 688 mmHg 49%
    13:00 +15°C° 0 mm 2 mps 688 mmHg 44%
    14:00 +16°C° 0 mm 2 mps 688 mmHg 44%
    15:00 +16°C° 0 mm 2 mps 687 mmHg 45%
    16:00 +16°C° 0 mm 2 mps 687 mmHg 45%
    17:00 +14°C° 0.1 mm 3 mps 687 mmHg 51%
    18:00 +13°C° 0.1 mm 3 mps 687 mmHg 57%
    19:00 +13°C° 0.1 mm 3 mps 687 mmHg 63%
    20:00 +12°C° 0 mm 4 mps 687 mmHg 68%
    21:00 +11°C° 0 mm 4 mps 687 mmHg 74%
    22:00 +11°C° 0 mm 4 mps 687 mmHg 79%
    23:00 +10°C° 0 mm 3 mps 687 mmHg 82%
    Show more